| Temperature (°F) | Max | Average | Min |
|---|---|---|---|
| Max Temperature | 73 | 56.65 | 43 |
| Avg Temperature | 59.27 | 50.3 | 37.75 |
| Min Temperature | 52 | 44.29 | 32 |
| Dew Point (°F) | Max | Average | Min |
|---|---|---|---|
| Dew Point | 57 | 45.69 | 25 |
| Precipitation (in) | Max | Average | Min | Sum |
|---|---|---|---|---|
| Precipitation | 0.00 | 0.00 | 0.00 | 0.00 |
| Snowdepth | 0.00 | 0.00 | 0.00 | 0.00 |
| Wind (mph) | Max | Average | Min |
|---|---|---|---|
| Wind | 29 | 8.73 | 0 |
| Gust Wind | 44 | 1.43 | 0 |
| Sea Level Pressure (in) | Max | Average | Min |
|---|---|---|---|
| Sea Level Pressure | 29.94 | 29.56 | 28.4 |
| Date | Temperature (°F) | Dew Point (°F) | Humidity (%) | Wind Speed (mph) | Pressure (in) | Precipitation (in) | ||||||||||
|---|---|---|---|---|---|---|---|---|---|---|---|---|---|---|---|---|
| Max | Avg | Min | Max | Avg | Min | Max | Avg | Min | Max | Avg | Min | Max | Avg | Min | ||
| 10/31/2017 | 45 | 37.8 | 32 | 36 | 29.8 | 28 | 87 | 74.7 | 53 | 17 | 10.9 | 3 | 29.7 | 29.6 | 29.5 | 0.00 |
| 10/30/2017 | 43 | 39.2 | 34 | 34 | 29.8 | 25 | 81 | 69.2 | 53 | 26 | 18.3 | 10 | 29.5 | 29.3 | 29.0 | 0.00 |
| 10/29/2017 | 48 | 43.9 | 39 | 45 | 40.1 | 30 | 100 | 85.6 | 65 | 29 | 16.5 | 6 | 29.1 | 28.7 | 28.4 | 0.00 |
| 10/28/2017 | 48 | 45.9 | 43 | 45 | 42.7 | 39 | 93 | 87.8 | 82 | 18 | 11.5 | 6 | 29.6 | 29.3 | 29.0 | 0.00 |
| 10/27/2017 | 54 | 49.9 | 43 | 48 | 46.2 | 39 | 94 | 87.9 | 77 | 16 | 9.2 | 6 | 29.6 | 29.5 | 29.4 | 0.00 |
| 10/26/2017 | 57 | 52.9 | 50 | 54 | 47.4 | 46 | 94 | 83.4 | 72 | 15 | 10.0 | 7 | 29.7 | 29.7 | 29.6 | 0.00 |
| 10/25/2017 | 57 | 44.5 | 41 | 54 | 42.5 | 37 | 100 | 93.1 | 87 | 14 | 9.2 | 1 | 29.9 | 29.8 | 29.6 | 0.00 |
| 10/24/2017 | 45 | 43.1 | 41 | 41 | 37.7 | 36 | 93 | 82.9 | 76 | 9 | 6.3 | 3 | 29.9 | 29.9 | 29.7 | 0.00 |
| 10/23/2017 | 48 | 45.8 | 43 | 46 | 44.7 | 41 | 100 | 95.8 | 87 | 10 | 6.5 | 1 | 29.7 | 29.6 | 29.5 | 0.00 |
| 10/22/2017 | 52 | 48.0 | 46 | 52 | 47.3 | 45 | 100 | 96.3 | 93 | 14 | 9.1 | 0 | 29.6 | 29.6 | 29.5 | 0.00 |
| 10/21/2017 | 55 | 53.2 | 52 | 54 | 52.2 | 50 | 100 | 96.3 | 94 | 10 | 5.6 | 2 | 29.7 | 29.6 | 29.5 | 0.00 |
| 10/20/2017 | 63 | 53.5 | 45 | 54 | 50.9 | 45 | 100 | 91.2 | 72 | 9 | 5.0 | 0 | 29.7 | 29.7 | 29.7 | 0.00 |
| 10/19/2017 | 64 | 56.6 | 50 | 54 | 50.8 | 48 | 94 | 81.3 | 68 | 10 | 5.8 | 2 | 29.7 | 29.6 | 29.6 | 0.00 |
| 10/18/2017 | 70 | 57.1 | 46 | 57 | 52.3 | 46 | 100 | 85.7 | 60 | 6 | 2.8 | 0 | 29.7 | 29.6 | 29.6 | 0.00 |
| 10/17/2017 | 73 | 58.8 | 46 | 57 | 53.0 | 46 | 100 | 83.6 | 53 | 8 | 4.1 | 0 | 29.8 | 29.8 | 29.7 | 0.00 |
| 10/16/2017 | 72 | 57.4 | 45 | 57 | 52.0 | 45 | 100 | 83.8 | 57 | 9 | 4.9 | 2 | 29.9 | 29.8 | 29.8 | 0.00 |
| 10/15/2017 | 64 | 59.3 | 50 | 57 | 56.1 | 50 | 100 | 90.4 | 77 | 12 | 7.9 | 1 | 29.9 | 29.9 | 29.8 | 0.00 |
| 10/14/2017 | 61 | 53.7 | 43 | 57 | 49.9 | 41 | 100 | 87.9 | 72 | 12 | 7.7 | 1 | 29.8 | 29.8 | 29.8 | 0.00 |
| 10/13/2017 | 55 | 52.0 | 45 | 45 | 44.1 | 41 | 93 | 73.9 | 63 | 18 | 12.5 | 6 | 29.8 | 29.7 | 29.6 | 0.00 |
| 10/12/2017 | 64 | 56.9 | 52 | 54 | 51.0 | 43 | 94 | 80.4 | 63 | 14 | 8.8 | 6 | 29.6 | 29.6 | 29.5 | 0.00 |
| 10/11/2017 | 57 | 55.1 | 48 | 54 | 52.7 | 48 | 100 | 90.9 | 88 | 12 | 8.1 | 5 | 29.6 | 29.5 | 29.5 | 0.00 |
| 10/10/2017 | 54 | 47.4 | 43 | 46 | 41.8 | 37 | 93 | 81.3 | 54 | 13 | 8.8 | 2 | 29.5 | 29.5 | 29.4 | 0.00 |
| 10/9/2017 | 54 | 46.9 | 39 | 43 | 39.8 | 37 | 100 | 77.5 | 58 | 17 | 11.8 | 6 | 29.5 | 29.4 | 29.4 | 0.00 |
| 10/8/2017 | 57 | 48.6 | 43 | 50 | 45.5 | 41 | 100 | 88.9 | 71 | 14 | 8.4 | 3 | 29.5 | 29.4 | 29.3 | 0.00 |
| 10/7/2017 | 55 | 49.2 | 46 | 46 | 45.5 | 45 | 100 | 87.2 | 67 | 9 | 7.5 | 5 | 29.6 | 29.5 | 29.4 | 0.00 |
| 10/6/2017 | 54 | 48.6 | 45 | 46 | 45.3 | 43 | 100 | 88.3 | 72 | 25 | 9.5 | 3 | 29.4 | 29.2 | 28.8 | 0.00 |
| 10/5/2017 | 54 | 49.7 | 45 | 50 | 46.3 | 43 | 100 | 88.5 | 72 | 17 | 9.0 | 3 | 29.5 | 29.2 | 28.8 | 0.00 |
| 10/4/2017 | 57 | 52.8 | 50 | 52 | 47.3 | 45 | 100 | 83.0 | 63 | 15 | 8.3 | 5 | 29.7 | 29.6 | 29.5 | 0.00 |
| 10/3/2017 | 54 | 52.4 | 50 | 52 | 49.5 | 45 | 94 | 91.0 | 76 | 9 | 7.0 | 3 | 29.6 | 29.5 | 29.5 | 0.00 |
| 10/2/2017 | 63 | 49.8 | 37 | 46 | 42.0 | 36 | 100 | 76.8 | 52 | 13 | 9.3 | 5 | 29.9 | 29.8 | 29.6 | 0.00 |
| 10/1/2017 | 59 | 49.3 | 41 | 43 | 40.0 | 37 | 87 | 72.0 | 51 | 15 | 10.4 | 8 | 29.9 | 29.9 | 29.9 | 0.00 |